#	Date Time	Temp �C 
1	2/25/2014 12:13	31.472
2	2/25/2014 12:28	35.222
3	2/25/2014 12:43	37.824
4	2/25/2014 12:58	40.645
5	2/25/2014 13:13	40.645
6	2/25/2014 13:28	38.49
7	2/25/2014 13:43	35.971
8	2/25/2014 13:58	34.585
9	2/25/2014 14:13	33.639
10	2/25/2014 14:28	33.43
11	2/25/2014 14:43	33.639
12	2/25/2014 14:58	35.222
13	2/25/2014 15:13	35.756
14	2/25/2014 15:28	34.903
15	2/25/2014 15:43	32.807
16	2/25/2014 15:58	31.268
17	2/25/2014 16:13	29.552
18	2/25/2014 16:28	28.258
19	2/25/2014 16:43	26.977
20	2/25/2014 16:58	25.805
21	2/25/2014 17:13	24.738
22	2/25/2014 17:28	23.966
23	2/25/2014 17:43	23.1
24	2/25/2014 17:58	22.717
25	2/25/2014 18:13	22.238
26	2/25/2014 18:28	22.046
27	2/25/2014 18:43	23.004
28	2/25/2014 18:58	23.388
29	2/25/2014 19:13	23.484
30	2/25/2014 19:28	23.004
31	2/25/2014 19:43	21.855
32	2/25/2014 19:58	20.805
33	2/25/2014 20:13	19.758
34	2/25/2014 20:28	18.806
35	2/25/2014 20:43	18.045
36	2/25/2014 20:58	17.189
37	2/25/2014 21:13	16.427
38	2/25/2014 21:28	15.664
39	2/25/2014 21:43	14.996
40	2/25/2014 21:58	14.23
41	2/25/2014 22:13	13.654
42	2/25/2014 22:28	12.98
43	2/25/2014 22:43	12.401
44	2/25/2014 22:58	11.916
45	2/25/2014 23:13	11.431
46	2/25/2014 23:28	10.944
47	2/25/2014 23:43	10.553
48	2/25/2014 23:58	10.161
49	2/26/2014 0:13	9.768
50	2/26/2014 0:28	9.373
51	2/26/2014 0:43	8.978
52	2/26/2014 0:58	8.68
53	2/26/2014 1:13	8.382
54	2/26/2014 1:28	8.082
55	2/26/2014 1:43	7.782
56	2/26/2014 1:58	7.582
57	2/26/2014 2:13	7.381
58	2/26/2014 2:28	7.179
59	2/26/2014 2:43	6.978
60	2/26/2014 2:58	6.775
61	2/26/2014 3:13	6.573
62	2/26/2014 3:28	6.37
63	2/26/2014 3:43	6.268
64	2/26/2014 3:58	6.064
65	2/26/2014 4:13	5.962
66	2/26/2014 4:28	5.86
67	2/26/2014 4:43	5.86
68	2/26/2014 4:58	5.757
69	2/26/2014 5:13	5.655
70	2/26/2014 5:28	5.655
71	2/26/2014 5:43	5.552
72	2/26/2014 5:58	5.45
73	2/26/2014 6:13	5.347
74	2/26/2014 6:28	5.347
75	2/26/2014 6:43	5.244
76	2/26/2014 6:58	5.141
77	2/26/2014 7:13	5.141
78	2/26/2014 7:28	5.141
79	2/26/2014 7:43	5.037
80	2/26/2014 7:58	5.141
81	2/26/2014 8:13	5.552
82	2/26/2014 8:28	6.268
83	2/26/2014 8:43	7.28
84	2/26/2014 8:58	8.382
85	2/26/2014 9:13	9.472
86	2/26/2014 9:28	10.455
87	2/26/2014 9:43	11.431
88	2/26/2014 9:58	13.173
89	2/26/2014 10:13	14.325
90	2/26/2014 10:28	15.855
91	2/26/2014 10:43	15.187
92	2/26/2014 10:58	14.804
93	2/26/2014 11:13	14.613
94	2/26/2014 11:28	15.378
95	2/26/2014 11:43	19.092
96	2/26/2014 11:58	14.9
97	2/26/2014 12:13	14.421
98	2/26/2014 12:28	14.23
99	2/26/2014 12:43	17.475
100	2/26/2014 12:58	7.882
101	2/26/2014 13:13	7.782
102	2/26/2014 13:28	7.882
103	2/26/2014 13:43	7.882
104	2/26/2014 13:58	7.882
105	2/26/2014 14:13	7.882
106	2/26/2014 14:28	7.882
107	2/26/2014 14:43	7.882
108	2/26/2014 14:58	7.882
109	2/26/2014 15:13	7.882
110	2/26/2014 15:28	7.882
111	2/26/2014 15:43	7.882
112	2/26/2014 15:58	7.882
113	2/26/2014 16:13	7.882
114	2/26/2014 16:28	7.882
115	2/26/2014 16:43	7.882
116	2/26/2014 16:58	7.983
117	2/26/2014 17:13	7.882
118	2/26/2014 17:28	7.882
119	2/26/2014 17:43	7.882
120	2/26/2014 17:58	7.882
121	2/26/2014 18:13	7.882
122	2/26/2014 18:28	7.882
123	2/26/2014 18:43	7.882
124	2/26/2014 18:58	7.882
125	2/26/2014 19:13	7.882
126	2/26/2014 19:28	7.782
127	2/26/2014 19:43	7.782
128	2/26/2014 19:58	7.782
129	2/26/2014 20:13	7.782
130	2/26/2014 20:28	7.782
131	2/26/2014 20:43	7.782
132	2/26/2014 20:58	7.782
133	2/26/2014 21:13	7.782
134	2/26/2014 21:28	7.782
135	2/26/2014 21:43	7.782
136	2/26/2014 21:58	7.782
137	2/26/2014 22:13	7.782
138	2/26/2014 22:28	7.782
139	2/26/2014 22:43	7.782
140	2/26/2014 22:58	7.782
141	2/26/2014 23:13	7.782
142	2/26/2014 23:28	7.782
143	2/26/2014 23:43	7.782
144	2/26/2014 23:58	7.782
145	2/27/2014 0:13	7.782
146	2/27/2014 0:28	7.782
147	2/27/2014 0:43	7.782
148	2/27/2014 0:58	7.882
149	2/27/2014 1:13	7.882
150	2/27/2014 1:28	7.882
151	2/27/2014 1:43	7.882
152	2/27/2014 1:58	7.882
153	2/27/2014 2:13	7.882
154	2/27/2014 2:28	7.882
155	2/27/2014 2:43	7.882
156	2/27/2014 2:58	7.882
157	2/27/2014 3:13	7.882
158	2/27/2014 3:28	7.882
159	2/27/2014 3:43	7.782
160	2/27/2014 3:58	7.782
161	2/27/2014 4:13	7.782
162	2/27/2014 4:28	7.782
163	2/27/2014 4:43	7.782
164	2/27/2014 4:58	7.682
165	2/27/2014 5:13	7.682
166	2/27/2014 5:28	7.682
167	2/27/2014 5:43	7.682
168	2/27/2014 5:58	7.682
169	2/27/2014 6:13	7.682
170	2/27/2014 6:28	7.682
171	2/27/2014 6:43	7.682
172	2/27/2014 6:58	7.682
173	2/27/2014 7:13	7.682
174	2/27/2014 7:28	7.682
175	2/27/2014 7:43	7.682
176	2/27/2014 7:58	7.782
177	2/27/2014 8:13	7.782
178	2/27/2014 8:28	7.782
179	2/27/2014 8:43	7.782
180	2/27/2014 8:58	7.782
181	2/27/2014 9:13	7.782
182	2/27/2014 9:28	7.782
183	2/27/2014 9:43	7.782
184	2/27/2014 9:58	7.782
185	2/27/2014 10:13	7.782
186	2/27/2014 10:28	7.782
187	2/27/2014 10:43	7.782
188	2/27/2014 10:58	7.782
189	2/27/2014 11:13	7.782
190	2/27/2014 11:28	7.782
191	2/27/2014 11:43	7.882
192	2/27/2014 11:58	7.882
193	2/27/2014 12:13	7.882
194	2/27/2014 12:28	7.983
195	2/27/2014 12:43	7.882
196	2/27/2014 12:58	7.983
197	2/27/2014 13:13	7.983
198	2/27/2014 13:28	7.882
199	2/27/2014 13:43	7.882
200	2/27/2014 13:58	8.082
201	2/27/2014 14:13	8.082
202	2/27/2014 14:28	7.983
203	2/27/2014 14:43	8.082
204	2/27/2014 14:58	7.983
205	2/27/2014 15:13	7.983
206	2/27/2014 15:28	7.983
207	2/27/2014 15:43	7.983
208	2/27/2014 15:58	7.983
209	2/27/2014 16:13	7.983
210	2/27/2014 16:28	7.983
211	2/27/2014 16:43	7.983
212	2/27/2014 16:58	7.983
213	2/27/2014 17:13	7.983
214	2/27/2014 17:28	8.082
215	2/27/2014 17:43	7.983
216	2/27/2014 17:58	7.983
217	2/27/2014 18:13	7.882
218	2/27/2014 18:28	7.983
219	2/27/2014 18:43	7.983
220	2/27/2014 18:58	7.983
221	2/27/2014 19:13	7.983
222	2/27/2014 19:28	7.983
223	2/27/2014 19:43	7.882
224	2/27/2014 19:58	7.882
225	2/27/2014 20:13	7.882
226	2/27/2014 20:28	7.882
227	2/27/2014 20:43	7.882
228	2/27/2014 20:58	7.882
229	2/27/2014 21:13	7.882
230	2/27/2014 21:28	7.882
231	2/27/2014 21:43	7.882
232	2/27/2014 21:58	7.882
233	2/27/2014 22:13	7.782
234	2/27/2014 22:28	7.782
235	2/27/2014 22:43	7.882
236	2/27/2014 22:58	7.782
237	2/27/2014 23:13	7.782
238	2/27/2014 23:28	7.782
239	2/27/2014 23:43	7.782
240	2/27/2014 23:58	7.782
241	2/28/2014 0:13	7.782
242	2/28/2014 0:28	7.782
243	2/28/2014 0:43	7.782
244	2/28/2014 0:58	7.782
245	2/28/2014 1:13	7.882
246	2/28/2014 1:28	7.882
247	2/28/2014 1:43	7.882
248	2/28/2014 1:58	7.882
249	2/28/2014 2:13	7.882
250	2/28/2014 2:28	7.882
251	2/28/2014 2:43	7.882
252	2/28/2014 2:58	7.882
253	2/28/2014 3:13	7.882
254	2/28/2014 3:28	7.882
255	2/28/2014 3:43	7.983
256	2/28/2014 3:58	7.882
257	2/28/2014 4:13	7.882
258	2/28/2014 4:28	7.882
259	2/28/2014 4:43	7.882
260	2/28/2014 4:58	7.882
261	2/28/2014 5:13	7.882
262	2/28/2014 5:28	7.782
263	2/28/2014 5:43	7.882
264	2/28/2014 5:58	7.782
265	2/28/2014 6:13	7.882
266	2/28/2014 6:28	7.882
267	2/28/2014 6:43	7.882
268	2/28/2014 6:58	7.882
269	2/28/2014 7:13	7.882
270	2/28/2014 7:28	7.782
271	2/28/2014 7:43	7.782
272	2/28/2014 7:58	7.882
273	2/28/2014 8:13	7.782
274	2/28/2014 8:28	7.782
275	2/28/2014 8:43	7.782
276	2/28/2014 8:58	7.782
277	2/28/2014 9:13	7.882
278	2/28/2014 9:28	7.882
279	2/28/2014 9:43	7.882
280	2/28/2014 9:58	7.882
281	2/28/2014 10:13	7.882
282	2/28/2014 10:28	7.882
283	2/28/2014 10:43	7.882
284	2/28/2014 10:58	7.983
285	2/28/2014 11:13	7.983
286	2/28/2014 11:28	7.983
287	2/28/2014 11:43	7.983
288	2/28/2014 11:58	7.983
289	2/28/2014 12:13	7.983
290	2/28/2014 12:28	7.983
291	2/28/2014 12:43	7.983
292	2/28/2014 12:58	7.983
293	2/28/2014 13:13	7.983
294	2/28/2014 13:28	7.983
295	2/28/2014 13:43	7.983
296	2/28/2014 13:58	7.983
297	2/28/2014 14:13	7.983
298	2/28/2014 14:28	8.082
299	2/28/2014 14:43	8.082
300	2/28/2014 14:58	8.082
301	2/28/2014 15:13	8.082
302	2/28/2014 15:28	8.082
303	2/28/2014 15:43	8.082
304	2/28/2014 15:58	8.082
305	2/28/2014 16:13	8.082
306	2/28/2014 16:28	8.082
307	2/28/2014 16:43	8.082
308	2/28/2014 16:58	8.082
309	2/28/2014 17:13	8.082
310	2/28/2014 17:28	8.082
311	2/28/2014 17:43	8.082
312	2/28/2014 17:58	8.082
313	2/28/2014 18:13	8.082
314	2/28/2014 18:28	8.082
315	2/28/2014 18:43	7.983
316	2/28/2014 18:58	7.983
317	2/28/2014 19:13	7.983
318	2/28/2014 19:28	7.983
319	2/28/2014 19:43	7.983
320	2/28/2014 19:58	7.983
321	2/28/2014 20:13	7.983
322	2/28/2014 20:28	7.983
323	2/28/2014 20:43	7.983
324	2/28/2014 20:58	7.983
325	2/28/2014 21:13	7.882
326	2/28/2014 21:28	7.882
327	2/28/2014 21:43	7.882
328	2/28/2014 21:58	7.882
329	2/28/2014 22:13	7.882
330	2/28/2014 22:28	7.882
331	2/28/2014 22:43	7.882
332	2/28/2014 22:58	7.882
333	2/28/2014 23:13	7.882
334	2/28/2014 23:28	7.882
335	2/28/2014 23:43	7.882
336	2/28/2014 23:58	7.882
337	3/1/2014 0:13	7.882
338	3/1/2014 0:28	7.882
339	3/1/2014 0:43	7.882
340	3/1/2014 0:58	7.882
341	3/1/2014 1:13	7.882
342	3/1/2014 1:28	7.882
343	3/1/2014 1:43	7.882
344	3/1/2014 1:58	7.882
345	3/1/2014 2:13	7.882
346	3/1/2014 2:28	7.882
347	3/1/2014 2:43	7.882
348	3/1/2014 2:58	7.882
349	3/1/2014 3:13	7.882
350	3/1/2014 3:28	7.882
351	3/1/2014 3:43	7.882
352	3/1/2014 3:58	7.882
353	3/1/2014 4:13	7.882
354	3/1/2014 4:28	7.882
355	3/1/2014 4:43	7.882
356	3/1/2014 4:58	7.882
357	3/1/2014 5:13	7.882
358	3/1/2014 5:28	7.882
359	3/1/2014 5:43	7.882
360	3/1/2014 5:58	7.882
361	3/1/2014 6:13	7.882
362	3/1/2014 6:28	7.882
363	3/1/2014 6:43	7.882
364	3/1/2014 6:58	7.882
365	3/1/2014 7:13	7.882
366	3/1/2014 7:28	7.882
367	3/1/2014 7:43	7.882
368	3/1/2014 7:58	7.882
369	3/1/2014 8:13	7.882
370	3/1/2014 8:28	7.882
371	3/1/2014 8:43	7.782
372	3/1/2014 8:58	7.882
373	3/1/2014 9:13	7.882
374	3/1/2014 9:28	7.882
375	3/1/2014 9:43	7.882
376	3/1/2014 9:58	7.882
377	3/1/2014 10:13	7.882
378	3/1/2014 10:28	7.882
379	3/1/2014 10:43	7.882
380	3/1/2014 10:58	7.882
381	3/1/2014 11:13	7.882
382	3/1/2014 11:28	7.882
383	3/1/2014 11:43	7.882
384	3/1/2014 11:58	7.882
385	3/1/2014 12:13	7.882
386	3/1/2014 12:28	7.882
387	3/1/2014 12:43	7.882
388	3/1/2014 12:58	7.882
389	3/1/2014 13:13	7.882
390	3/1/2014 13:28	7.882
391	3/1/2014 13:43	7.882
392	3/1/2014 13:58	7.882
393	3/1/2014 14:13	7.882
394	3/1/2014 14:28	7.882
395	3/1/2014 14:43	7.882
396	3/1/2014 14:58	7.882
397	3/1/2014 15:13	7.882
398	3/1/2014 15:28	7.882
399	3/1/2014 15:43	7.882
400	3/1/2014 15:58	7.882
401	3/1/2014 16:13	7.882
402	3/1/2014 16:28	7.882
403	3/1/2014 16:43	7.882
404	3/1/2014 16:58	7.882
405	3/1/2014 17:13	7.882
406	3/1/2014 17:28	7.882
407	3/1/2014 17:43	7.882
408	3/1/2014 17:58	7.882
409	3/1/2014 18:13	7.882
410	3/1/2014 18:28	7.882
411	3/1/2014 18:43	7.882
412	3/1/2014 18:58	7.882
413	3/1/2014 19:13	7.882
414	3/1/2014 19:28	7.782
415	3/1/2014 19:43	7.882
416	3/1/2014 19:58	7.882
417	3/1/2014 20:13	7.882
418	3/1/2014 20:28	7.882
419	3/1/2014 20:43	7.882
420	3/1/2014 20:58	7.882
421	3/1/2014 21:13	7.882
422	3/1/2014 21:28	7.782
423	3/1/2014 21:43	7.882
424	3/1/2014 21:58	7.882
425	3/1/2014 22:13	7.882
426	3/1/2014 22:28	7.882
427	3/1/2014 22:43	7.882
428	3/1/2014 22:58	7.882
429	3/1/2014 23:13	7.882
430	3/1/2014 23:28	7.882
431	3/1/2014 23:43	7.882
432	3/1/2014 23:58	7.882
433	3/2/2014 0:13	7.882
434	3/2/2014 0:28	7.782
435	3/2/2014 0:43	7.782
436	3/2/2014 0:58	7.882
437	3/2/2014 1:13	7.782
438	3/2/2014 1:28	7.782
439	3/2/2014 1:43	7.782
440	3/2/2014 1:58	7.782
441	3/2/2014 2:13	7.782
442	3/2/2014 2:28	7.782
443	3/2/2014 2:43	7.882
444	3/2/2014 2:58	7.882
445	3/2/2014 3:13	7.882
446	3/2/2014 3:28	7.882
447	3/2/2014 3:43	7.882
448	3/2/2014 3:58	7.882
449	3/2/2014 4:13	7.882
450	3/2/2014 4:28	7.882
451	3/2/2014 4:43	7.882
452	3/2/2014 4:58	7.882
453	3/2/2014 5:13	7.882
454	3/2/2014 5:28	7.882
455	3/2/2014 5:43	7.882
456	3/2/2014 5:58	7.882
457	3/2/2014 6:13	7.882
458	3/2/2014 6:28	7.882
459	3/2/2014 6:43	7.882
460	3/2/2014 6:58	7.882
461	3/2/2014 7:13	7.882
462	3/2/2014 7:28	7.882
463	3/2/2014 7:43	7.882
464	3/2/2014 7:58	7.882
465	3/2/2014 8:13	7.882
466	3/2/2014 8:28	7.882
467	3/2/2014 8:43	7.882
468	3/2/2014 8:58	7.882
469	3/2/2014 9:13	7.882
470	3/2/2014 9:28	7.882
471	3/2/2014 9:43	7.882
472	3/2/2014 9:58	7.882
473	3/2/2014 10:13	7.882
474	3/2/2014 10:28	7.882
475	3/2/2014 10:43	7.882
476	3/2/2014 10:58	7.882
477	3/2/2014 11:13	7.882
478	3/2/2014 11:28	7.882
479	3/2/2014 11:43	7.882
480	3/2/2014 11:58	7.882
481	3/2/2014 12:13	7.882
482	3/2/2014 12:28	7.882
483	3/2/2014 12:43	7.882
484	3/2/2014 12:58	7.882
485	3/2/2014 13:13	7.882
486	3/2/2014 13:28	7.882
487	3/2/2014 13:43	7.882
488	3/2/2014 13:58	7.882
489	3/2/2014 14:13	7.882
490	3/2/2014 14:28	7.882
491	3/2/2014 14:43	7.882
492	3/2/2014 14:58	7.882
493	3/2/2014 15:13	7.882
494	3/2/2014 15:28	7.882
495	3/2/2014 15:43	7.882
496	3/2/2014 15:58	7.882
497	3/2/2014 16:13	7.882
498	3/2/2014 16:28	7.882
499	3/2/2014 16:43	7.882
500	3/2/2014 16:58	7.882
501	3/2/2014 17:13	7.882
502	3/2/2014 17:28	7.882
503	3/2/2014 17:43	7.882
504	3/2/2014 17:58	7.882
505	3/2/2014 18:13	7.882
506	3/2/2014 18:28	7.882
507	3/2/2014 18:43	7.882
508	3/2/2014 18:58	7.882
509	3/2/2014 19:13	7.882
510	3/2/2014 19:28	7.882
511	3/2/2014 19:43	7.882
512	3/2/2014 19:58	7.882
513	3/2/2014 20:13	7.882
514	3/2/2014 20:28	7.882
515	3/2/2014 20:43	7.882
516	3/2/2014 20:58	7.882
517	3/2/2014 21:13	7.882
518	3/2/2014 21:28	7.882
519	3/2/2014 21:43	7.882
520	3/2/2014 21:58	7.882
521	3/2/2014 22:13	7.882
522	3/2/2014 22:28	7.882
523	3/2/2014 22:43	7.882
524	3/2/2014 22:58	7.882
525	3/2/2014 23:13	7.882
526	3/2/2014 23:28	7.882
527	3/2/2014 23:43	7.882
528	3/2/2014 23:58	7.882
529	3/3/2014 0:13	7.882
530	3/3/2014 0:28	7.882
531	3/3/2014 0:43	7.882
532	3/3/2014 0:58	7.882
533	3/3/2014 1:13	7.882
534	3/3/2014 1:28	7.882
535	3/3/2014 1:43	7.882
536	3/3/2014 1:58	7.882
537	3/3/2014 2:13	7.882
538	3/3/2014 2:28	7.882
539	3/3/2014 2:43	7.882
540	3/3/2014 2:58	7.882
541	3/3/2014 3:13	7.882
542	3/3/2014 3:28	7.882
543	3/3/2014 3:43	7.882
544	3/3/2014 3:58	7.882
545	3/3/2014 4:13	7.882
546	3/3/2014 4:28	7.882
547	3/3/2014 4:43	7.882
548	3/3/2014 4:58	7.882
549	3/3/2014 5:13	7.882
550	3/3/2014 5:28	7.882
551	3/3/2014 5:43	7.882
552	3/3/2014 5:58	7.882
553	3/3/2014 6:13	7.882
554	3/3/2014 6:28	7.882
555	3/3/2014 6:43	7.882
556	3/3/2014 6:58	7.882
557	3/3/2014 7:13	7.882
558	3/3/2014 7:28	7.882
559	3/3/2014 7:43	7.882
560	3/3/2014 7:58	7.882
561	3/3/2014 8:13	7.882
562	3/3/2014 8:28	7.882
563	3/3/2014 8:43	7.882
564	3/3/2014 8:58	7.882
565	3/3/2014 9:13	7.882
566	3/3/2014 9:28	7.882
567	3/3/2014 9:43	7.882
568	3/3/2014 9:58	7.882
569	3/3/2014 10:13	7.882
570	3/3/2014 10:28	7.882
571	3/3/2014 10:43	7.983
572	3/3/2014 10:58	7.983
573	3/3/2014 11:13	7.983
574	3/3/2014 11:28	7.983
575	3/3/2014 11:43	7.882
576	3/3/2014 11:58	7.882
577	3/3/2014 12:13	7.983
578	3/3/2014 12:28	7.983
579	3/3/2014 12:43	7.983
580	3/3/2014 12:58	7.983
581	3/3/2014 13:13	7.983
582	3/3/2014 13:28	7.983
583	3/3/2014 13:43	7.983
584	3/3/2014 13:58	7.983
585	3/3/2014 14:13	7.983
586	3/3/2014 14:28	7.983
587	3/3/2014 14:43	7.983
588	3/3/2014 14:58	7.983
589	3/3/2014 15:13	7.983
590	3/3/2014 15:28	7.983
591	3/3/2014 15:43	7.983
592	3/3/2014 15:58	7.983
593	3/3/2014 16:13	7.983
594	3/3/2014 16:28	7.983
595	3/3/2014 16:43	7.983
596	3/3/2014 16:58	7.983
597	3/3/2014 17:13	7.983
598	3/3/2014 17:28	7.983
599	3/3/2014 17:43	7.983
600	3/3/2014 17:58	7.983
601	3/3/2014 18:13	7.983
602	3/3/2014 18:28	7.983
603	3/3/2014 18:43	7.983
604	3/3/2014 18:58	7.983
605	3/3/2014 19:13	7.983
606	3/3/2014 19:28	7.983
607	3/3/2014 19:43	7.983
608	3/3/2014 19:58	7.983
609	3/3/2014 20:13	7.983
610	3/3/2014 20:28	7.983
611	3/3/2014 20:43	7.983
612	3/3/2014 20:58	7.983
613	3/3/2014 21:13	7.983
614	3/3/2014 21:28	7.983
615	3/3/2014 21:43	7.983
616	3/3/2014 21:58	7.983
617	3/3/2014 22:13	7.983
618	3/3/2014 22:28	7.983
619	3/3/2014 22:43	7.983
620	3/3/2014 22:58	7.983
621	3/3/2014 23:13	7.983
622	3/3/2014 23:28	7.983
623	3/3/2014 23:43	7.983
624	3/3/2014 23:58	7.882
625	3/4/2014 0:13	7.983
626	3/4/2014 0:28	7.983
627	3/4/2014 0:43	7.983
628	3/4/2014 0:58	7.983
629	3/4/2014 1:13	7.983
630	3/4/2014 1:28	7.983
631	3/4/2014 1:43	7.983
632	3/4/2014 1:58	7.983
633	3/4/2014 2:13	7.983
634	3/4/2014 2:28	7.983
635	3/4/2014 2:43	7.983
636	3/4/2014 2:58	7.983
637	3/4/2014 3:13	7.983
638	3/4/2014 3:28	7.983
639	3/4/2014 3:43	7.983
640	3/4/2014 3:58	7.983
641	3/4/2014 4:13	7.983
642	3/4/2014 4:28	7.983
643	3/4/2014 4:43	7.983
644	3/4/2014 4:58	7.983
645	3/4/2014 5:13	7.983
646	3/4/2014 5:28	7.983
647	3/4/2014 5:43	7.983
648	3/4/2014 5:58	7.983
649	3/4/2014 6:13	7.983
650	3/4/2014 6:28	7.983
651	3/4/2014 6:43	7.983
652	3/4/2014 6:58	7.983
653	3/4/2014 7:13	7.983
654	3/4/2014 7:28	7.983
655	3/4/2014 7:43	7.983
656	3/4/2014 7:58	7.983
657	3/4/2014 8:13	7.983
658	3/4/2014 8:28	7.882
659	3/4/2014 8:43	7.983
660	3/4/2014 8:58	7.983
661	3/4/2014 9:13	7.983
662	3/4/2014 9:28	7.983
663	3/4/2014 9:43	7.983
664	3/4/2014 9:58	7.983
665	3/4/2014 10:13	7.983
666	3/4/2014 10:28	7.983
667	3/4/2014 10:43	7.983
668	3/4/2014 10:58	7.983
669	3/4/2014 11:13	7.983
670	3/4/2014 11:28	7.983
671	3/4/2014 11:43	7.983
672	3/4/2014 11:58	7.983
673	3/4/2014 12:13	7.983
674	3/4/2014 12:28	7.983
675	3/4/2014 12:43	7.983
676	3/4/2014 12:58	7.983
677	3/4/2014 13:13	7.983
678	3/4/2014 13:28	8.082
679	3/4/2014 13:43	8.082
680	3/4/2014 13:58	7.983
681	3/4/2014 14:13	7.983
682	3/4/2014 14:28	7.983
683	3/4/2014 14:43	7.983
684	3/4/2014 14:58	8.082
685	3/4/2014 15:13	8.082
686	3/4/2014 15:28	8.082
687	3/4/2014 15:43	8.082
688	3/4/2014 15:58	8.082
689	3/4/2014 16:13	7.983
690	3/4/2014 16:28	7.983
691	3/4/2014 16:43	7.983
692	3/4/2014 16:58	7.983
693	3/4/2014 17:13	7.983
694	3/4/2014 17:28	7.983
695	3/4/2014 17:43	7.983
696	3/4/2014 17:58	7.983
697	3/4/2014 18:13	7.983
698	3/4/2014 18:28	7.983
699	3/4/2014 18:43	7.983
700	3/4/2014 18:58	7.983
701	3/4/2014 19:13	7.983
702	3/4/2014 19:28	7.983
703	3/4/2014 19:43	7.983
704	3/4/2014 19:58	7.983
705	3/4/2014 20:13	7.983
706	3/4/2014 20:28	7.983
707	3/4/2014 20:43	7.983
708	3/4/2014 20:58	7.983
709	3/4/2014 21:13	7.983
710	3/4/2014 21:28	7.983
711	3/4/2014 21:43	7.983
712	3/4/2014 21:58	7.983
713	3/4/2014 22:13	7.983
714	3/4/2014 22:28	7.983
715	3/4/2014 22:43	7.983
716	3/4/2014 22:58	7.983
717	3/4/2014 23:13	7.983
718	3/4/2014 23:28	8.082
719	3/4/2014 23:43	8.082
720	3/4/2014 23:58	8.082
721	3/5/2014 0:13	7.983
722	3/5/2014 0:28	7.983
723	3/5/2014 0:43	7.983
724	3/5/2014 0:58	7.983
725	3/5/2014 1:13	7.983
726	3/5/2014 1:28	7.983
727	3/5/2014 1:43	7.983
728	3/5/2014 1:58	7.983
729	3/5/2014 2:13	7.983
730	3/5/2014 2:28	7.983
731	3/5/2014 2:43	7.983
732	3/5/2014 2:58	7.983
733	3/5/2014 3:13	7.983
734	3/5/2014 3:28	7.983
735	3/5/2014 3:43	7.983
736	3/5/2014 3:58	7.983
737	3/5/2014 4:13	7.983
738	3/5/2014 4:28	7.983
739	3/5/2014 4:43	7.983
740	3/5/2014 4:58	7.983
741	3/5/2014 5:13	7.983
742	3/5/2014 5:28	7.983
743	3/5/2014 5:43	7.983
744	3/5/2014 5:58	7.983
745	3/5/2014 6:13	7.983
746	3/5/2014 6:28	7.983
747	3/5/2014 6:43	7.983
748	3/5/2014 6:58	7.983
749	3/5/2014 7:13	7.983
750	3/5/2014 7:28	7.983
751	3/5/2014 7:43	7.983
752	3/5/2014 7:58	7.983
753	3/5/2014 8:13	7.983
754	3/5/2014 8:28	7.983
755	3/5/2014 8:43	7.983
756	3/5/2014 8:58	7.983
757	3/5/2014 9:13	7.983
758	3/5/2014 9:28	7.983
759	3/5/2014 9:43	7.983
760	3/5/2014 9:58	7.983
761	3/5/2014 10:13	7.983
762	3/5/2014 10:28	7.983
763	3/5/2014 10:43	8.082
764	3/5/2014 10:58	8.082
765	3/5/2014 11:13	8.182
766	3/5/2014 11:28	8.182
767	3/5/2014 11:43	8.082
768	3/5/2014 11:58	8.182
769	3/5/2014 12:13	8.082
770	3/5/2014 12:28	8.182
771	3/5/2014 12:43	8.082
772	3/5/2014 12:58	8.182
773	3/5/2014 13:13	8.182
774	3/5/2014 13:28	8.182
775	3/5/2014 13:43	8.182
776	3/5/2014 13:58	8.182
777	3/5/2014 14:13	8.082
778	3/5/2014 14:28	8.082
779	3/5/2014 14:43	8.182
780	3/5/2014 14:58	8.182
781	3/5/2014 15:13	8.082
782	3/5/2014 15:28	8.182
783	3/5/2014 15:43	8.182
784	3/5/2014 15:58	8.082
785	3/5/2014 16:13	8.082
786	3/5/2014 16:28	8.082
787	3/5/2014 16:43	8.082
788	3/5/2014 16:58	8.082
789	3/5/2014 17:13	8.082
790	3/5/2014 17:28	8.082
791	3/5/2014 17:43	8.082
792	3/5/2014 17:58	8.082
793	3/5/2014 18:13	8.082
794	3/5/2014 18:28	8.082
795	3/5/2014 18:43	7.983
796	3/5/2014 18:58	7.983
797	3/5/2014 19:13	7.983
798	3/5/2014 19:28	7.983
799	3/5/2014 19:43	7.983
800	3/5/2014 19:58	7.983
801	3/5/2014 20:13	7.983
802	3/5/2014 20:28	7.983
803	3/5/2014 20:43	7.983
804	3/5/2014 20:58	7.983
805	3/5/2014 21:13	7.983
806	3/5/2014 21:28	7.983
807	3/5/2014 21:43	7.983
808	3/5/2014 21:58	7.983
809	3/5/2014 22:13	7.983
810	3/5/2014 22:28	7.983
811	3/5/2014 22:43	7.983
812	3/5/2014 22:58	7.983
813	3/5/2014 23:13	7.983
814	3/5/2014 23:28	7.983
815	3/5/2014 23:43	7.983
816	3/5/2014 23:58	7.983
817	3/6/2014 0:13	8.082
818	3/6/2014 0:28	8.082
819	3/6/2014 0:43	8.082
820	3/6/2014 0:58	8.082
821	3/6/2014 1:13	8.082
822	3/6/2014 1:28	8.082
823	3/6/2014 1:43	8.082
824	3/6/2014 1:58	8.082
825	3/6/2014 2:13	8.082
826	3/6/2014 2:28	8.082
827	3/6/2014 2:43	8.082
828	3/6/2014 2:58	8.082
829	3/6/2014 3:13	8.082
830	3/6/2014 3:28	8.082
831	3/6/2014 3:43	8.082
832	3/6/2014 3:58	8.082
833	3/6/2014 4:13	8.082
834	3/6/2014 4:28	8.082
835	3/6/2014 4:43	8.082
836	3/6/2014 4:58	8.082
837	3/6/2014 5:13	8.082
838	3/6/2014 5:28	8.082
839	3/6/2014 5:43	8.082
840	3/6/2014 5:58	8.082
841	3/6/2014 6:13	8.082
842	3/6/2014 6:28	8.082
843	3/6/2014 6:43	7.983
844	3/6/2014 6:58	7.983
845	3/6/2014 7:13	7.983
846	3/6/2014 7:28	7.983
847	3/6/2014 7:43	7.983
848	3/6/2014 7:58	7.983
849	3/6/2014 8:13	7.983
850	3/6/2014 8:28	7.983
851	3/6/2014 8:43	7.983
852	3/6/2014 8:58	7.983
853	3/6/2014 9:13	7.983
854	3/6/2014 9:28	7.983
855	3/6/2014 9:43	8.082
856	3/6/2014 9:58	8.082
857	3/6/2014 10:13	8.082
858	3/6/2014 10:28	8.082
859	3/6/2014 10:43	8.082
860	3/6/2014 10:58	8.182
861	3/6/2014 11:13	8.182
862	3/6/2014 11:28	8.182
863	3/6/2014 11:43	8.182
864	3/6/2014 11:58	8.182
865	3/6/2014 12:13	8.182
866	3/6/2014 12:28	8.282
867	3/6/2014 12:43	8.182
868	3/6/2014 12:58	8.182
869	3/6/2014 13:13	8.282
870	3/6/2014 13:28	8.282
871	3/6/2014 13:43	8.182
872	3/6/2014 13:58	8.182
873	3/6/2014 14:13	8.182
874	3/6/2014 14:28	8.182
875	3/6/2014 14:43	8.182
876	3/6/2014 14:58	8.182
877	3/6/2014 15:13	8.182
878	3/6/2014 15:28	8.182
879	3/6/2014 15:43	8.182
880	3/6/2014 15:58	8.182
881	3/6/2014 16:13	8.182
882	3/6/2014 16:28	8.182
883	3/6/2014 16:43	8.182
884	3/6/2014 16:58	8.182
885	3/6/2014 17:13	8.182
886	3/6/2014 17:28	8.182
887	3/6/2014 17:43	8.182
888	3/6/2014 17:58	8.182
889	3/6/2014 18:13	8.182
890	3/6/2014 18:28	8.182
891	3/6/2014 18:43	8.182
892	3/6/2014 18:58	8.182
893	3/6/2014 19:13	8.082
894	3/6/2014 19:28	8.082
895	3/6/2014 19:43	8.082
896	3/6/2014 19:58	8.082
897	3/6/2014 20:13	8.082
898	3/6/2014 20:28	7.983
899	3/6/2014 20:43	7.983
900	3/6/2014 20:58	7.983
901	3/6/2014 21:13	7.983
902	3/6/2014 21:28	7.983
903	3/6/2014 21:43	7.983
904	3/6/2014 21:58	7.983
905	3/6/2014 22:13	7.983
906	3/6/2014 22:28	7.983
907	3/6/2014 22:43	7.983
908	3/6/2014 22:58	7.983
909	3/6/2014 23:13	8.082
910	3/6/2014 23:28	7.983
911	3/6/2014 23:43	7.983
912	3/6/2014 23:58	7.983
913	3/7/2014 0:13	7.983
914	3/7/2014 0:28	7.983
915	3/7/2014 0:43	7.983
916	3/7/2014 0:58	7.983
917	3/7/2014 1:13	7.983
918	3/7/2014 1:28	7.983
919	3/7/2014 1:43	7.983
920	3/7/2014 1:58	7.983
921	3/7/2014 2:13	8.082
922	3/7/2014 2:28	8.082
923	3/7/2014 2:43	8.082
924	3/7/2014 2:58	8.082
925	3/7/2014 3:13	8.082
926	3/7/2014 3:28	8.082